This demonstration page uses our WeatherBlox Daily Observations layout. Learn more.

Left ArrowRight Arrow

36.17497, -115.13722

Hourly Observations for May 2, 2016

Temp ( °F °C ) Dew Point ( °F °C ) Humidity (%) Winds ( mph kmh ) Pressure ( in mb ) Visibility ( mi km ) Precip ( " mm )
12:53 am 00:53 Clear 60 15.6 46 7.8 60 60 N N/A 30.01 1016 10 16 N/A
1:53 am 01:53 Clear 58 14.4 44 6.7 60 60 NNW 6 9 30.01 1016 10 16 N/A
2:53 am 02:53 Clear 57 13.9 43 6.1 60 60 N 3 6 30.01 1016 10 16 N/A
3:53 am 03:53 Clear 57 13.9 44 6.7 62 62 NW 5 7 30.03 1017 10 16 N/A
4:53 am 04:53 Clear 56 13.3 44 6.7 65 65 N N/A 30.04 1017 10 16 N/A
5:53 am 05:53 Sunny 54 12.2 45 7.2 72 72 N N/A 30.06 1018 10 16 N/A
6:53 am 06:53 Sunny 61 16.1 43 6.1 52 52 SW 6 9 30.09 1019 10 16 N/A
7:53 am 07:53 Sunny 65 18.3 41 5 42 42 SW 5 7 30.10 1019 10 16 N/A
8:53 am 08:53 Sunny 67 19.4 39 3.9 36 36 N N/A 30.11 1020 10 16 N/A
9:53 am 09:53 Sunny 69 20.6 40 4.4 35 35 N N/A 30.11 1020 10 16 N/A
10:53 am 10:53 Mostly Sunny 71 21.7 40 4.4 32 32 undefined N/A 30.11 1020 10 16 N/A
11:53 am 11:53 Sunny 73 22.8 38 3.3 28 28 N N/A 30.10 1019 10 16 N/A
12:53 pm 12:53 Sunny 75 23.9 38 3.3 26 26 SE 5 7 30.08 1019 10 16 N/A
1:53 pm 13:53 Sunny 77 25 38 3.3 24 24 ENE 8 13 30.06 1018 10 16 N/A
2:53 pm 14:53 Sunny 78 25.6 36 2.2 22 22 VRB 6 9 30.03 1017 10 16 N/A
3:53 pm 15:53 Sunny 76 24.4 33 0.6 21 21 SW 3 6 30.01 1016 10 16 N/A
4:53 pm 16:53 Sunny 78 25.6 34 1.1 20 20 SE 7 11 30.01 1016 10 16 N/A
5:53 pm 17:53 Sunny 78 25.6 34 1.1 20 20 ENE 3 6 30.01 1016 10 16 N/A
6:53 pm 18:53 Mostly Cloudy 77 25 35 1.7 22 22 NE 9 15 30.00 1016 10 16 N/A
7:53 pm 19:53 Clear 75 23.9 36 2.2 24 24 ENE 7 11 30.01 1016 10 16 N/A
8:53 pm 20:53 Clear 74 23.3 37 2.8 26 26 NNE 5 7 30.02 1017 10 16 N/A
9:53 pm 21:53 Clear 71 21.7 37 2.8 29 29 N 5 7 30.04 1017 10 16 N/A
10:53 pm 22:53 Clear 69 20.6 39 3.9 33 33 WNW 5 7 30.05 1018 10 16 N/A
11:53 pm 23:53 Clear 68 20 37 2.8 32 32 NNW 5 7 30.05 1018 10 16 N/A

Powered by AerisWeather